Stations météo

Publicité
Tenerife/Los Rodeos, Espagne (60015): Température de l'air & dewpoint: 15.04.2018 12:00:00 - 21.04.2018 12:00:00 (WEST)Tenerife/Los Rodeos, Espagne (60015): Vitesse du vent: 15.04.2018 12:00:00 - 21.04.2018 12:00:00 (WEST)Tenerife/Los Rodeos, Espagne (60015): Direction du vent: 15.04.2018 12:00:00 - 21.04.2018 12:00:00 (WEST)Tenerife/Los Rodeos, Espagne (60015): reduced air pressure: 15.04.2018 12:00:00 - 21.04.2018 12:00:00 (WEST)Tenerife/Los Rodeos, Espagne (60015): visibility: 15.04.2018 12:00:00 - 21.04.2018 12:00:00 (WEST)
Date & Time tt [°C] td [°C] ff [km/h] ff [knt] dd ppp [hPa] vv [km]
21.04.2018 12:00:00 11,8 11,0 29 16 WNW 1016,6 2,5
21.04.2018 11:00:00 11,9 10,5 28 15 W 1016,4 7
21.04.2018 10:00:00 12,2 10,8 28 15 W 1016,0 10
21.04.2018 09:00:00 10,6 9,5 29 16 WNW 1016,3 3,0
21.04.2018 08:00:00 10,1 9,3 31 17 WNW 1016,3 10
21.04.2018 07:00:00 10,1 9,3 24 13 W 1016,1 10
21.04.2018 06:00:00 10,4 8,8 28 15 NW 1015,9 11
21.04.2018 05:00:00 10,6 7,8 31 17 WNW 1016,2 10
21.04.2018 04:00:00 10,5 7,4 31 17 WNW 1016,6 10
21.04.2018 03:00:00 10,4 8,2 29 16 WNW 1017,1 10
21.04.2018 02:00:00 10,2 8,6 29 16 WNW 1017,9 10
21.04.2018 01:00:00 11,0 8,4 31 17 WNW 1018,3 10
21.04.2018 00:00:00 11,6 8,1 35 19 NW 1018,3 10
20.04.2018 23:00:00 11,4 8,4 37 20 NW 1018,7 10
20.04.2018 22:00:00 11,8 7,7 34 18 NW 1018,3 10
20.04.2018 21:00:00 11,4 5,8 35 19 NW 1017,8 10
20.04.2018 20:00:00 11,9 6,2 34 18 NW 1017,3 10
20.04.2018 19:00:00 12,3 9,4 39 21 NW 1017,0 10
20.04.2018 18:00:00 12,0 10,2 34 18 NW 1017,4 10
20.04.2018 17:00:00 11,8 10,5 34 18 WNW 1017,6 27
20.04.2018 16:00:00 12,1 9,3 31 17 WNW 1017,7 6
20.04.2018 15:00:00 13,6 10,2 34 18 WNW 1018,0 20
20.04.2018 14:00:00 13,8 9,6 34 18 NW 1017,9 10
20.04.2018 13:00:00 14,7 9,3 37 20 NNW 1017,7 10
20.04.2018 12:00:00 14,3 9,8 35 19 NW 1017,8 10
20.04.2018 11:00:00 13,3 8,4 35 19 NNW 1018,1 10
20.04.2018 10:00:00 13,1 9,9 34 18 NNW 1017,9 10
20.04.2018 09:00:00 11,5 9,4 31 17 NNW 1018,0 10
20.04.2018 08:00:00 11,2 9,5 31 17 NW 1018,1 10
20.04.2018 07:00:00 11,3 8,5 34 18 NNW 1017,4 10
20.04.2018 06:00:00 11,2 8,9 39 21 NNW 1017,3 9
20.04.2018 05:00:00 11,6 9,2 28 15 NNW 1017,6 10
20.04.2018 04:00:00 11,8 9,5 35 19 NNW 1018,0 10
20.04.2018 03:00:00 11,7 10,1 31 17 NNW 1018,7 10
20.04.2018 02:00:00 11,8 10,2 26 14 NW 1019,3 9
20.04.2018 01:00:00 12,3 10,4 31 17 NNW 1019,6 10
20.04.2018 00:00:00 12,3 10,7 29 16 NW 1019,8 26
19.04.2018 23:00:00 12,4 10,8 28 15 NW 1019,9 27
19.04.2018 22:00:00 12,4 11,1 39 21 NNW 1018,9 10
19.04.2018 21:00:00 12,5 11,7 35 19 NNW 1018,0 4,0
19.04.2018 20:00:00 12,8 12,3 39 21 NW 1017,4 2,2
19.04.2018 19:00:00 14,1 13,4 37 20 NW 1017,0 4,5
19.04.2018 18:00:00 15,4 13,0 35 19 WNW 1016,8 30
19.04.2018 17:00:00 16,1 12,6 34 18 WNW 1016,6 10
19.04.2018 16:00:00 17,8 13,3 42 23 WNW 1016,1 30
19.04.2018 15:00:00 17,8 13,3 34 18 NW 1016,4 10
19.04.2018 14:00:00 17,8 13,0 35 19 WNW 1016,8 30
19.04.2018 13:00:00 18,1 13,2 29 16 NW 1017,3 10
19.04.2018 12:00:00 17,8 13,1 28 15 NW 1017,7 10
19.04.2018 11:00:00 19,4 10,4 22 12 WNW 1017,0 10
19.04.2018 10:00:00 18,3 6,9 24 13 WNW 1017,4 10
19.04.2018 09:00:00 15,6 10,7 22 12 WNW 1018,0 10
19.04.2018 08:00:00 12,6 12,0 18 10 WNW 1018,6 10
19.04.2018 07:00:00 13,3 12,7 34 18 WNW 1018,3 10
19.04.2018 06:00:00 13,8 13,1 41 22 WNW 1018,1 10
19.04.2018 05:00:00 13,5 12,9 31 17 WNW 1018,0 10
19.04.2018 04:00:00 13,8 13,0 35 19 WNW 1018,3 10
19.04.2018 03:00:00 13,5 12,8 35 19 WNW 1019,0 10
19.04.2018 02:00:00 13,8 13,0 31 17 WNW 1019,5 10
19.04.2018 01:00:00 13,2 12,4 34 18 WNW 1020,2 10
19.04.2018 00:00:00 13,5 12,8 29 16 WNW 1020,2 10
18.04.2018 23:00:00 13,7 13,1 29 16 W 1020,1 30
18.04.2018 22:00:00 13,9 13,0 29 16 WNW 1019,5 23
18.04.2018 21:00:00 14,5 13,4 31 17 WNW 1019,2 10
18.04.2018 20:00:00 14,6 13,3 29 16 WNW 1018,6 10
18.04.2018 19:00:00 15,6 13,4 31 17 WNW 1018,7 10
18.04.2018 18:00:00 17,3 13,8 31 17 WNW 1017,8 10
18.04.2018 17:00:00 17,9 14,1 29 16 WNW 1017,8 10
18.04.2018 16:00:00 18,8 13,6 24 13 WNW 1017,7 10
18.04.2018 15:00:00 18,3 14,4 26 14 WNW 1018,2 10
18.04.2018 14:00:00 18,1 14,0 31 17 WNW 1019,0 10
18.04.2018 13:00:00 18,6 13,7 24 13 WNW 1018,8 10
18.04.2018 12:00:00 17,3 13,6 26 14 WNW 1019,5 10
18.04.2018 11:00:00 16,4 13,9 26 14 WNW 1019,8 10
18.04.2018 10:00:00 14,7 14,2 22 12 W 1019,8 10
18.04.2018 09:00:00 13,4 13,2 22 12 W 1019,9 9
18.04.2018 08:00:00 12,4 12,3 22 12 W 1019,7 9
18.04.2018 07:00:00 12,3 12,1 24 13 W 1019,1 8
18.04.2018 06:00:00 12,5 12,3 18 10 W 1018,7 6
18.04.2018 05:00:00 12,7 12,5 26 14 W 1018,7 5
18.04.2018 04:00:00 13,0 12,8 26 14 W 1018,7 0,7
18.04.2018 03:00:00 12,9 12,7 22 12 W 1019,3 0,6
18.04.2018 02:00:00 12,5 12,3 18 10 W 1019,3 1,1
18.04.2018 01:00:00 13,0 12,7 22 12 W 1019,6 1,0
18.04.2018 00:00:00 13,2 12,9 24 13 W 1019,9 2,1
17.04.2018 23:00:00 12,4 11,9 16 9 W 1020,1 8
17.04.2018 22:00:00 13,5 13,2 22 12 W 1019,2 2,2
17.04.2018 21:00:00 14,1 13,8 24 13 W 1018,4 0,8
17.04.2018 20:00:00 14,7 13,9 24 13 W 1018,1 1,5
17.04.2018 19:00:00 16,4 13,9 18 10 W 1017,7 10
17.04.2018 18:00:00 18,9 14,2 13 7 W 1017,0 10
17.04.2018 17:00:00 18,4 13,5 15 8 W 1017,2 10
17.04.2018 16:00:00 19,2 14,0 15 8 W 1017,4 10
17.04.2018 15:00:00 22,1 14,6 9 5 NW 1016,9 10
17.04.2018 14:00:00 19,4 13,7 13 7 W 1018,3 10
17.04.2018 13:00:00 21,5 13,9 8 4 ESE 1018,2 10
17.04.2018 12:00:00 21,8 7,5 5 3 ESE 1018,4 10
17.04.2018 11:00:00 20,1 9,7 8 4 SE 1018,6 30
17.04.2018 10:00:00 18,4 9,9 8 4 ESE 1018,9 10
17.04.2018 09:00:00 14,1 12,4 2 1 N 1019,5 30
17.04.2018 08:00:00 11,2 10,4 9 5 W 1019,7 10
17.04.2018 07:00:00 11,0 10,5 11 6 W 1019,5 9
17.04.2018 06:00:00 11,7 11,2 9 5 W 1019,1 9
17.04.2018 05:00:00 12,3 11,8 15 8 W 1019,1 10
17.04.2018 04:00:00 12,4 11,8 16 9 W 1019,5 10
17.04.2018 03:00:00 12,9 12,3 16 9 W 1019,7 10
17.04.2018 02:00:00 12,4 11,8 18 10 W 1020,2 9
17.04.2018 01:00:00 12,8 12,2 16 9 W 1020,4 10
17.04.2018 00:00:00 12,7 12,1 16 9 W 1020,7 10
16.04.2018 23:00:00 12,2 11,1 16 9 W 1021,0 10
16.04.2018 22:00:00 12,8 11,9 13 7 W 1020,2 7
16.04.2018 21:00:00 13,4 11,7 13 7 W 1019,3 10
16.04.2018 20:00:00 15,9 12,8 11 6 W 1018,4 22
16.04.2018 19:00:00 18,1 13,4 13 7 WNW 1017,9 10
16.04.2018 18:00:00 19,7 14,2 5 3 - 1017,4 10
16.04.2018 17:00:00 18,5 14,2 11 6 ESE 1018,0 10
16.04.2018 16:00:00 18,6 14,0 8 4 ESE 1018,2 10
16.04.2018 15:00:00 18,3 14,0 11 6 ESE 1018,9 10
16.04.2018 14:00:00 17,2 13,7 13 7 ESE 1020,0 10
16.04.2018 13:00:00 16,5 13,1 11 6 ESE 1020,7 10
16.04.2018 12:00:00 17,1 13,4 8 4 SE 1020,6 10
16.04.2018 11:00:00 16,8 13,5 9 5 E 1020,5 10
16.04.2018 10:00:00 17,3 11,4 2 1 - 1020,1 10
16.04.2018 09:00:00 13,7 11,8 5 3 WNW 1020,5 10
16.04.2018 08:00:00 11,5 9,9 8 4 S 1020,9 10
16.04.2018 07:00:00 11,0 9,7 8 4 SSE 1020,9 30
16.04.2018 06:00:00 10,5 8,8 5 3 ESE 1020,9 10
16.04.2018 05:00:00 11,5 10,4 9 5 W 1020,9 10
16.04.2018 04:00:00 11,8 11,2 9 5 W 1021,4 10
16.04.2018 03:00:00 12,2 11,4 11 6 W 1022,0 18
16.04.2018 02:00:00 13,2 12,4 11 6 NW 1022,3 10
16.04.2018 01:00:00 12,5 11,7 15 8 WNW 1023,2 30
16.04.2018 00:00:00 12,3 11,6 13 7 W 1023,6 10
15.04.2018 23:00:00 12,6 11,7 13 7 WNW 1023,2 10
15.04.2018 22:00:00 13,0 11,9 21 11 WNW 1022,5 10
15.04.2018 21:00:00 13,3 11,9 22 12 WNW 1021,9 10
15.04.2018 20:00:00 13,8 12,0 16 9 NW 1021,5 10
15.04.2018 19:00:00 14,0 12,9 15 8 NW 1021,5 10
15.04.2018 18:00:00 15,1 13,0 21 11 NW 1021,1 10
15.04.2018 17:00:00 16,6 12,5 21 11 NW 1020,6 10
15.04.2018 16:00:00 18,3 13,3 18 10 WNW 1020,7 10
15.04.2018 15:00:00 17,5 13,3 18 10 WNW 1021,4 10
15.04.2018 14:00:00 17,3 13,2 13 7 NW 1021,6 10
15.04.2018 13:00:00 15,8 13,2 18 10 NW 1022,5 10
15.04.2018 12:00:00 14,2 12,8 21 11 NW 1022,9 10

tt = Température de l'air
td = dewpoint
ff = Vitesse du vent
dd = Direction du vent
ppp = reduced air pressure
vv = visibility

stations d'obs. à proximité